TimeCDT,TemperatureF,Dew PointF,Humidity,Sea Level PressureIn,VisibilityMPH,Wind Direction,Wind SpeedMPH,Gust SpeedMPH,PrecipitationIn,Events,Conditions,WindDirDegrees,DateUTC
12:53 AM,36.0,28.0,73,30.07,10.0,NNW,13.8,26.5,N/A,,Overcast,330,2014-03-22 05:53:00
1:53 AM,35.1,27.0,72,30.09,10.0,NNW,12.7,23.0,N/A,,Overcast,330,2014-03-22 06:53:00
2:53 AM,34.0,27.0,75,30.12,10.0,NW,12.7,25.3,N/A,,Overcast,320,2014-03-22 07:53:00
3:15 AM,33.1,26.1,75,30.11,10.0,NW,12.7,-,N/A,,Scattered Clouds,320,2014-03-22 08:15:00
3:43 AM,33.1,26.1,75,30.12,10.0,NW,9.2,18.4,N/A,,Mostly Cloudy,320,2014-03-22 08:43:00
3:53 AM,33.1,26.1,75,30.13,10.0,NW,11.5,17.3,N/A,,Overcast,320,2014-03-22 08:53:00
4:53 AM,33.1,26.1,75,30.15,10.0,NNW,16.1,23.0,N/A,,Overcast,330,2014-03-22 09:53:00
5:53 AM,32.0,25.0,75,30.17,10.0,NNW,17.3,25.3,N/A,,Overcast,330,2014-03-22 10:53:00
6:53 AM,32.0,25.0,75,30.20,10.0,NW,12.7,17.3,N/A,,Overcast,320,2014-03-22 11:53:00
7:53 AM,30.9,23.0,72,30.23,10.0,NNW,15.0,-,N/A,,Overcast,330,2014-03-22 12:53:00
8:53 AM,30.0,23.0,75,30.27,10.0,NW,10.4,-,N/A,,Overcast,320,2014-03-22 13:53:00
9:53 AM,28.9,21.9,75,30.31,10.0,NNW,11.5,-,N/A,,Overcast,330,2014-03-22 14:53:00
10:53 AM,30.9,23.0,72,30.32,10.0,NW,9.2,-,N/A,,Overcast,320,2014-03-22 15:53:00
11:53 AM,30.9,21.9,69,30.32,9.0,NNW,12.7,19.6,N/A,,Overcast,330,2014-03-22 16:53:00
12:53 PM,34.0,23.0,64,30.32,10.0,NNW,11.5,-,N/A,,Overcast,340,2014-03-22 17:53:00
1:42 PM,34.0,21.0,59,30.29,10.0,NW,15.0,21.9,N/A,,Scattered Clouds,320,2014-03-22 18:42:00
1:53 PM,37.0,21.9,54,30.30,10.0,NW,12.7,19.6,N/A,,Partly Cloudy,320,2014-03-22 18:53:00
2:53 PM,39.0,19.9,46,30.29,10.0,NNW,11.5,21.9,N/A,,Partly Cloudy,330,2014-03-22 19:53:00
3:53 PM,39.9,18.0,41,30.27,10.0,NW,17.3,26.5,N/A,,Clear,320,2014-03-22 20:53:00
4:53 PM,39.0,16.0,39,30.30,10.0,NNW,18.4,24.2,N/A,,Clear,330,2014-03-22 21:53:00
5:53 PM,36.0,12.9,39,30.32,9.0,NNW,15.0,-,N/A,,Partly Cloudy,330,2014-03-22 22:53:00
6:53 PM,33.1,12.9,43,30.32,10.0,NNW,16.1,-,N/A,,Scattered Clouds,340,2014-03-22 23:53:00
7:53 PM,30.9,12.9,47,30.33,10.0,North,13.8,-,N/A,,Mostly Cloudy,350,2014-03-23 00:53:00
8:53 PM,30.0,14.0,51,30.37,10.0,NNW,12.7,-,N/A,,Partly Cloudy,330,2014-03-23 01:53:00
9:53 PM,28.9,15.1,56,30.40,9.0,NNW,10.4,-,N/A,,Overcast,340,2014-03-23 02:53:00
10:53 PM,27.0,14.0,58,30.42,10.0,NNW,9.2,-,N/A,,Overcast,330,2014-03-23 03:53:00
11:53 PM,27.0,12.9,56,30.43,10.0,North,13.8,-,N/A,,Overcast,350,2014-03-23 04:53:00